CAPE
13 6 41 38 9 39 47 4 27 27 22 12 7 0 0 0 0 0 0 90 96 67 71 36 2 1 15 48 85 106 205 231 180 137 71 25 4 1
0 13 30 14 19 16 35 45 45 24 21 11 8 4 0 0 0 0 0 0 17 42 45 56 35 5 13 27 27 51 66 90 89 6 2 1 1 0
0 0 6 6 12 21 21 32 38 32 24 5 1 1 1 0 0 0 0 0 0 1 3 6 7 44 10 24 48 20 17 35 3 0 0 0 0 0
0 0 0 1 1 18 15 48 55 31 26 17 2 1 0 0 0 0 0 0 0 0 1 0 0 0 29 30 19 0 0 0 0 0 0 0 0 0
0 0 3 16 8 40 26 11 41 35 23 30 19 12 4 0 0 0 0 0 0 0 0 0 0 0 0 1 63 14 0 0 0 0 0 0 0 0
0 0 0 7 35 23 11 6 44 42 40 49 26 3 0 0 1 4 2 4 0 0 0 0 0 0 0 0 1 93 34 22 0 0 0 0 0 0
0 0 0 15 68 40 43 10 5 15 14 35 28 15 30 10 6 6 5 3 3 1 2 2 0 0 0 0 0 0 47 102 53 7 0 2 0 0
0 0 0 0 0 37 33 17 3 21 2 9 10 10 19 7 3 3 11 6 6 4 8 4 6 0 0 0 0 0 0 26 86 83 74 60 19 0
0 0 0 0 0 0 0 0 0 0 9 19 3 9 7 1 1 1 6 3 16 8 9 13 7 13 2 0 0 0 0 0 0 0 32 84 71 55
0 0 0 0 3 0 0 6 0 2 6 15 23 12 1 0 6 9 9 4 5 2 8 13 5 6 3 2 0 0 0 0 0 0 0 6 39 66
0 0 0 0 14 9 0 4 2 4 0 3 4 4 3 1 8 13 20 6 5 10 10 17 30 19 16 3 3 0 0 0 0 0 0 3 1 9
0 0 0 5 11 10 1 0 0 4 1 0 1 0 0 0 1 1 5 5 4 6 14 11 14 24 15 9 11 5 2 0 0 0 0 0 1 7
0 0 0 2 4 3 3 0 13 0 0 0 1 4 4 4 5 3 3 5 5 3 4 7 5 3 7 14 9 7 4 2 1 0 0 0 0 0
0 0 0 0 0 0 0 4 3 0 0 0 0 1 2 2 0 1 1 4 6 6 5 4 10 8 8 12 6 7 6 5 7 5 1 0 1 2
0 0 0 0 0 0 0 0 0 0 0 0 0 0 0 0 0 0 0 0 0 0 0 3 9 10 11 9 11 4 16 5 4 3 4 5 5 6
0 0 0 0 0 0 0 0 0 0 0 0 0 0 0 0 0 1 3 2 4 4 0 0 0 0 4 5 8 7 3 7 3 5 4 4 2 5
0 0 0 0 0 0 0 0 0 0 0 0 0 0 0 0 0 0 1 5 5 4 3 5 9 3 2 3 5 5 3 6 5 3 5 8 9 6
0 0 0 0 0 0 0 0 0 0 0 0 0 0 0 0 0 0 0 0 0 0 0 0 1 3 5 3 6 2 4 7 6 6 5 8 9 4
0 0 0 0 0 0 0 0 0 0 0 0 0 0 0 0 0 0 0 0 0 0 0 0 1 4 3 1 2 17 24 15 17 9 9 8 7 11
0 1 1 0 0 0 0 0 0 0 0 0 0 0 0 0 0 0 0 0 0 0 0 0 0 2 8 6 12 5 2 12 13 16 22 20 3 17
0 1 1 0 1 1 0 0 0 0 0 0 0 0 0 0 0 0 0 0 0 0 0 0 0 1 6 7 3 3 1 1 19 26 27 26 14 17
1 2 1 1 1 1 1 0 0 0 0 1 2 1 0 0 0 0 0 0 0 0 0 0 0 1 5 5 5 5 7 5 1 0 2 21 30 33
1 2 3 1 1 1 1 1 1 1 3 1 2 0 0 0 0 0 0 0 0 0 0 0 0 1 2 3 4 6 6 8 9 3 2 1 0 0
CIN
0 -17 0 0 0 0 0 -3 0 0 0 0 0 0 0 0 0 0 0 -28 -18 -19 -13 -16 -15 -3 -12 -1 -1 -1 -1 -1 -11 -1 -2 -1 0 -4
0 -5 0 0 0 0 0 0 0 0 0 0 0 0 0 0 0 0 0 0 -57 -27 -30 -27 -21 -30 -12 -8 -8 -5 -1 -1 0 -12 -6 0 0 0
0 -1 -2 0 0 -1 -1 -1 -3 -1 0 0 -1 -3 -1 0 0 0 0 0 0 -19 -58 -57 -54 -24 -19 -6 -6 -10 -11 -4 -8 0 0 0 0 0
0 0 0 0 0 -1 0 0 0 -7 -5 -1 -15 -1 0 0 0 0 0 0 0 0 -57 0 0 -3 -32 -4 -3 0 0 0 0 0 0 0 0 0
0 0 -2 0 0 0 -1 0 0 0 -7 -4 -4 -16 -12 0 0 0 0 0 0 0 0 0 0 0 0 -4 -3 -7 0 0 0 0 0 0 0 0
0 0 0 -2 0 -1 -1 0 0 0 -2 -2 -6 -18 -10 -2 0 0 0 0 0 0 0 0 0 0 0 0 -7 -4 -11 -13 0 0 0 0 0 0
0 0 0 0 0 0 0 0 -1 0 0 0 -1 0 0 -7 0 0 0 0 0 0 0 0 0 0 0 0 0 0 -25 -6 -7 -12 0 -16 0 0
0 0 0 0 -1 0 0 0 -2 0 -2 -1 0 0 0 0 0 0 0 0 0 0 0 0 0 0 0 0 0 0 0 -29 -6 -4 -5 -5 -12 0
0 0 0 0 0 -8 0 -2 0 0 -1 0 -1 -1 -9 0 -4 0 0 -3 0 -5 -1 0 0 0 0 0 0 0 0 0 0 0 -10 -5 -6 -3
0 0 0 0 -9 0 0 -2 -6 -3 0 0 0 -5 -5 0 0 -12 -17 -3 0 0 -3 0 -2 -3 -2 0 0 0 0 0 0 0 0 -15 -5 -3
0 0 0 0 -2 -1 -14 -7 -6 -6 0 0 0 0 0 0 -3 0 0 0 0 0 0 0 0 0 -1 -1 0 0 0 0 0 0 0 0 -12 -3
0 0 0 0 0 0 -4 -1 -3 0 0 0 0 0 0 0 0 0 0 0 0 0 0 0 0 0 0 0 0 0 0 0 0 0 0 0 0 0
0 0 0 0 0 0 0 -1 -6 0 0 0 0 0 -1 0 0 0 0 0 0 0 0 0 0 0 0 0 0 0 0 0 0 0 0 0 0 0
0 0 0 0 0 0 0 0 0 0 0 0 0 0 -1 -2 -2 -2 -1 0 0 0 0 0 0 0 0 0 0 0 0 0 0 0 0 0 0 0
0 0 0 0 0 0 0 0 0 0 0 0 0 0 0 0 0 0 0 0 0 0 0 0 0 0 0 0 0 0 0 0 0 0 0 0 0 0
0 0 0 0 0 0 0 0 0 0 0 0 0 0 0 0 0 0 0 0 0 0 0 0 0 0 0 0 0 0 0 0 0 0 0 0 0 0
0 0 0 0 0 0 0 0 0 0 0 0 0 0 0 0 0 0 0 0 0 0 0 0 0 0 0 0 0 0 0 0 0 0 -1 0 0 0
0 0 0 0 0 0 0 0 0 0 0 0 0 0 0 0 0 0 0 0 0 0 0 0 0 0 0 0 0 0 0 0 0 0 0 0 -1 0
0 0 0 0 0 0 0 0 0 0 0 0 0 0 0 0 0 0 0 0 0 0 0 0 0 0 0 0 0 -4 0 0 0 0 0 0 -1 0
0 0 0 0 0 0 0 0 0 0 0 0 0 0 0 0 0 0 0 0 0 0 0 0 0 0 0 0 0 0 -4 0 0 0 0 0 -1 0
0 0 0 0 0 0 0 0 0 0 0 0 0 0 0 0 0 0 0 0 0 0 0 0 0 0 0 0 0 0 0 -1 0 0 0 0 0 0
0 0 0 0 0 0 0 0 0 0 0 0 0 0 0 0 0 0 0 0 0 0 0 0 0 0 0 0 0 0 0 0 0 0 -12 -2 0 0
0 0 0 0 0 0 0 0 0 0 0 0 0 0 0 0 0 0 0 0 0 0 0 0 0 0 0 0 0 0 0 0 0 0 -2 -4 0 0
Wind_Speed
10 9 8 7 5 6 4 2 3 4 2 5 5 10 8 8 12 8 9 15 14 12 8 7 6 6 7 8 7 2 4 5 8 13 16 14 13 14
7 11 10 8 6 6 5 4 3 3 3 2 3 6 8 6 10 8 8 11 15 13 13 13 7 5 6 5 6 5 5 9 12 13 12 11 12 14
10 9 11 10 8 5 4 4 4 3 4 3 1 3 5 8 7 6 5 6 6 13 12 12 12 10 7 4 2 4 5 5 5 6 6 6 8 9
10 10 11 9 9 6 4 7 5 3 2 5 2 3 4 8 7 6 6 6 5 8 9 10 11 11 12 7 2 3 3 3 4 4 5 5 4 6
8 9 10 11 11 9 7 7 5 4 3 2 3 2 2 5 5 5 7 7 5 9 9 9 10 11 11 13 5 4 2 1 3 3 3 2 3 3
7 7 9 10 9 7 7 7 8 7 3 3 1 2 2 3 4 5 6 7 7 7 8 8 9 9 9 10 11 6 6 5 4 3 1 2 3 2
8 7 7 11 14 10 7 7 7 5 5 5 4 3 3 4 4 4 4 6 5 5 6 6 7 5 5 7 7 8 8 9 10 9 8 6 7 7
8 9 9 9 10 8 13 11 9 6 4 4 3 3 2 2 1 2 4 5 5 1 7 8 7 7 6 5 10 10 9 9 11 11 10 10 11 11
7 7 8 7 10 1 6 9 9 10 9 5 4 4 1 3 2 1 1 2 3 3 4 6 5 8 7 6 9 10 10 8 6 5 9 13 14 15
6 7 7 10 8 1 3 6 5 4 6 5 5 4 3 4 4 3 2 2 4 5 4 3 1 3 5 6 10 11 13 12 11 10 11 12 12 15
6 6 8 8 12 8 2 6 6 4 5 9 7 6 7 9 1 3 2 3 3 2 2 2 1 4 5 7 6 7 7 9 10 10 12 14 15 16
6 6 9 10 12 11 3 4 5 1 5 6 6 6 6 6 5 2 1 3 3 3 1 3 4 5 4 1 3 5 7 6 7 9 11 12 12 7
5 6 6 12 12 11 10 6 5 2 5 4 4 5 5 5 3 2 2 3 4 5 6 4 3 5 4 5 6 6 7 7 6 8 12 14 14 13
6 6 6 12 11 11 8 10 10 5 3 4 3 3 4 3 3 2 3 4 6 9 8 6 4 5 5 7 7 6 8 8 9 9 8 10 14 16
5 8 11 11 10 8 11 10 7 4 4 4 4 4 4 5 6 4 4 6 7 8 8 10 8 8 6 7 9 9 9 8 9 10 9 8 8 7
6 5 7 8 8 7 7 7 4 4 5 4 5 5 4 4 4 3 4 5 5 5 5 7 9 8 7 8 8 10 9 7 7 9 9 8 9 9
7 3 5 6 6 6 5 6 5 5 5 5 5 5 5 5 5 4 4 5 7 8 8 7 7 9 8 10 8 9 10 9 8 9 9 9 10 10
3 4 5 6 6 6 6 6 5 7 6 6 6 5 5 5 6 5 5 5 6 7 8 8 7 7 6 8 17 10 8 8 8 8 8 8 9 8
4 4 4 5 5 6 6 6 6 6 6 5 5 6 6 6 7 6 6 6 6 7 7 7 7 6 8 9 7 16 9 8 8 8 7 7 8 10
4 4 4 4 5 5 6 6 6 6 6 6 6 6 5 6 6 6 6 7 7 8 8 7 6 6 7 8 8 10 10 8 7 8 7 7 10 17
4 4 4 5 5 5 5 5 6 5 6 6 6 5 6 6 6 6 6 9 10 7 8 8 7 13 7 6 6 7 6 7 11 9 7 7 8 6
4 4 5 5 5 4 4 5 5 5 5 6 6 6 6 6 6 7 7 7 7 7 7 8 8 6 4 4 7 8 8 7 8 11 13 11 6 5
4 4 5 4 4 4 4 5 5 5 5 6 6 6 7 7 7 6 7 7 7 7 7 8 7 5 4 5 6 6 9 9 7 7 6 7 11 10
Wind_Direction
350 338 328 337 321 324 341 337 335 342 336 353 338 358 8 21 40 56 44 51 68 67 76 88 64 36 11 6 12 90 207 169 137 95 89 94 100 87
355 349 348 343 344 315 339 325 285 342 328 355 349 343 352 17 25 28 40 54 52 52 50 50 35 27 7 353 17 54 86 98 101 101 101 105 97 88
357 353 354 350 343 340 315 305 299 288 319 4 287 336 354 6 15 22 27 36 46 38 34 33 33 20 356 7 59 82 102 122 117 116 119 118 107 111
351 349 350 352 355 342 333 319 311 315 312 325 323 344 5 355 357 19 19 33 35 23 19 19 23 20 15 342 101 84 51 79 132 138 146 147 143 121
347 346 342 347 6 357 356 356 351 320 298 296 315 336 344 12 350 8 22 13 19 14 13 4 5 6 10 6 301 198 191 111 101 126 121 147 157 159
343 341 340 334 349 356 4 7 343 347 297 286 317 347 340 8 23 2 2 2 346 353 359 2 2 3 5 358 354 281 225 203 192 183 208 243 253 238
339 338 335 326 344 2 355 1 358 0 358 13 21 348 6 6 8 341 342 343 338 2 353 352 352 352 355 347 332 335 315 225 214 213 214 216 233 239
335 331 334 337 333 345 355 3 3 20 43 29 359 352 6 318 357 341 342 351 332 27 346 325 326 321 328 331 338 327 323 305 238 230 222 220 227 237
331 329 330 333 344 358 360 12 18 18 14 6 349 345 240 225 198 168 187 242 272 295 309 301 324 312 310 309 318 316 311 311 313 309 284 238 233 236
332 331 323 326 333 177 348 5 6 16 356 357 347 301 253 236 217 183 234 286 270 268 241 273 314 288 308 306 294 298 300 294 289 283 283 280 278 254
337 335 336 330 328 3 333 348 342 9 1 4 356 350 356 1 141 200 275 328 321 305 306 283 286 300 285 278 294 324 315 295 292 293 293 281 275 274
333 334 344 336 349 352 30 339 312 324 352 10 5 10 16 14 28 14 261 289 292 293 117 331 329 335 317 344 344 334 327 314 307 305 301 295 288 272
334 334 337 340 352 355 355 331 339 59 343 330 334 358 4 9 15 336 279 258 259 256 280 309 297 305 269 298 300 312 306 303 297 291 290 280 271 268
333 321 327 349 356 359 354 351 1 357 337 336 334 339 346 347 330 284 255 256 250 258 273 272 262 259 270 281 282 288 286 290 291 284 277 275 273 271
325 327 343 353 2 4 3 4 3 355 343 333 337 334 326 312 308 290 254 237 249 248 244 243 241 251 249 262 277 283 285 283 278 274 273 273 272 270
336 334 351 355 14 9 4 6 8 358 341 329 324 322 313 315 312 311 301 315 300 299 269 241 238 241 254 251 259 273 276 271 279 279 274 265 266 271
343 354 1 2 3 360 6 2 1 2 355 345 329 327 321 321 317 314 292 296 298 309 310 307 288 250 244 258 269 264 276 274 270 279 273 267 262 263
340 9 5 357 348 344 355 360 1 359 355 338 334 332 329 327 321 318 310 302 298 297 301 306 303 300 274 245 233 261 271 279 286 283 273 261 265 266
1 9 4 348 330 338 349 356 353 348 338 340 334 336 334 329 331 330 329 320 312 310 309 307 302 293 294 291 288 224 265 275 284 284 275 264 270 274
3 3 350 331 331 344 347 346 342 350 347 344 339 340 337 332 330 331 330 324 318 315 313 312 305 299 283 288 293 296 244 275 272 274 281 270 274 274
352 355 344 333 342 346 337 335 338 338 342 340 340 338 337 333 328 327 316 319 322 322 317 317 316 307 291 288 274 287 308 246 262 282 289 285 287 279
346 347 342 339 342 335 335 335 334 344 352 357 349 335 331 328 326 327 326 325 326 320 309 311 319 316 291 267 295 305 316 319 299 284 278 275 295 290
343 340 332 334 324 330 336 337 342 345 352 347 337 326 325 325 328 322 321 322 323 325 330 327 332 327 306 293 299 314 326 329 328 327 326 321 319 305